QPF
0.00 0.00 0.02 0.07 0.13 0.14 0.07 0.01 0.00 0.00 0.00 0.00 0.00 0.00 0.01 0.04 0.08 0.10 0.12 0.11 0.08 0.08 0.11 0.16 0.12 0.08 0.07 0.06 0.06 0.05 0.06 0.05 0.06 0.06 0.05 0.05 0.05 0.05 0.04 0.03 0.03 0.03 0.05 0.05 0.06 0.08 0.11 0.10 0.12
0.00 0.01 0.04 0.11 0.15 0.10 0.06 0.01 0.00 0.00 0.00 0.00 0.00 0.01 0.03 0.07 0.05 0.06 0.12 0.09 0.08 0.08 0.11 0.15 0.12 0.09 0.08 0.07 0.07 0.05 0.05 0.05 0.05 0.05 0.05 0.05 0.04 0.04 0.04 0.04 0.03 0.03 0.05 0.05 0.05 0.07 0.12 0.13 0.14
0.01 0.02 0.06 0.12 0.07 0.04 0.03 0.01 0.00 0.00 0.00 0.01 0.01 0.01 0.04 0.10 0.09 0.07 0.10 0.07 0.06 0.07 0.09 0.10 0.09 0.10 0.10 0.10 0.09 0.08 0.07 0.07 0.05 0.06 0.07 0.07 0.05 0.05 0.07 0.06 0.05 0.05 0.05 0.06 0.06 0.07 0.14 0.16 0.11
0.02 0.05 0.07 0.07 0.03 0.01 0.00 0.00 0.00 0.00 0.00 0.01 0.02 0.05 0.09 0.11 0.07 0.06 0.07 0.05 0.06 0.07 0.07 0.08 0.09 0.11 0.12 0.11 0.09 0.09 0.10 0.09 0.09 0.09 0.09 0.09 0.06 0.05 0.05 0.05 0.06 0.05 0.04 0.04 0.06 0.09 0.16 0.16 0.07
0.04 0.09 0.08 0.04 0.02 0.00 0.00 0.00 0.00 0.01 0.02 0.03 0.05 0.09 0.12 0.10 0.04 0.04 0.05 0.06 0.04 0.07 0.06 0.07 0.11 0.12 0.10 0.07 0.06 0.08 0.09 0.09 0.09 0.08 0.08 0.10 0.09 0.06 0.07 0.05 0.05 0.05 0.03 0.04 0.07 0.11 0.17 0.13 0.07
0.05 0.07 0.05 0.03 0.01 0.01 0.00 0.00 0.01 0.02 0.03 0.03 0.04 0.07 0.12 0.09 0.05 0.04 0.04 0.05 0.04 0.05 0.08 0.11 0.10 0.08 0.09 0.07 0.08 0.09 0.09 0.08 0.09 0.08 0.08 0.09 0.10 0.11 0.10 0.07 0.05 0.05 0.04 0.04 0.06 0.10 0.11 0.09 0.08
0.04 0.06 0.03 0.02 0.01 0.01 0.00 0.00 0.01 0.03 0.03 0.03 0.02 0.03 0.06 0.05 0.04 0.04 0.03 0.03 0.03 0.05 0.10 0.09 0.08 0.09 0.10 0.12 0.12 0.16 0.15 0.10 0.08 0.08 0.09 0.08 0.08 0.11 0.12 0.09 0.07 0.06 0.05 0.05 0.05 0.06 0.05 0.05 0.08
0.03 0.04 0.03 0.00 0.00 0.01 0.00 0.00 0.01 0.02 0.02 0.02 0.02 0.02 0.03 0.03 0.03 0.04 0.03 0.02 0.03 0.07 0.08 0.07 0.10 0.12 0.14 0.15 0.14 0.15 0.19 0.16 0.13 0.12 0.11 0.08 0.07 0.09 0.11 0.10 0.10 0.09 0.07 0.05 0.04 0.03 0.04 0.05 0.07
0.01 0.04 0.02 0.00 0.00 0.00 0.00 0.00 0.00 0.00 0.00 0.01 0.02 0.02 0.02 0.02 0.03 0.03 0.03 0.03 0.04 0.06 0.05 0.05 0.07 0.09 0.10 0.13 0.16 0.17 0.18 0.19 0.18 0.17 0.15 0.12 0.11 0.13 0.11 0.10 0.13 0.12 0.09 0.06 0.06 0.05 0.05 0.04 0.04
0.01 0.03 0.01 0.00 0.00 0.00 0.00 0.00 0.00 0.00 0.00 0.01 0.00 0.01 0.02 0.03 0.04 0.02 0.03 0.03 0.04 0.04 0.05 0.05 0.04 0.04 0.04 0.05 0.05 0.09 0.10 0.15 0.17 0.19 0.17 0.14 0.13 0.13 0.12 0.14 0.15 0.12 0.12 0.12 0.10 0.07 0.06 0.04 0.03
0.01 0.02 0.01 0.00 0.00 0.00 0.00 0.00 0.00 0.00 0.00 0.00 0.00 0.00 0.01 0.03 0.03 0.02 0.02 0.02 0.02 0.02 0.02 0.02 0.03 0.02 0.02 0.03 0.03 0.05 0.07 0.12 0.12 0.13 0.15 0.13 0.11 0.12 0.12 0.14 0.13 0.12 0.15 0.16 0.11 0.08 0.06 0.04 0.03
0.00 0.00 0.00 0.00 0.00 0.00 0.00 0.00 0.00 0.00 0.00 0.00 0.00 0.00 0.00 0.01 0.01 0.01 0.01 0.00 0.01 0.00 0.00 0.01 0.02 0.03 0.02 0.03 0.03 0.03 0.04 0.05 0.05 0.07 0.07 0.06 0.09 0.11 0.11 0.13 0.13 0.11 0.12 0.14 0.12 0.10 0.06 0.04 0.03
0.00 0.00 0.00 0.00 0.00 0.00 0.00 0.01 0.00 0.00 0.00 0.00 0.00 0.00 0.00 0.00 0.00 0.00 0.00 0.00 0.00 0.00 0.00 0.01 0.01 0.03 0.03 0.04 0.03 0.03 0.02 0.03 0.02 0.04 0.05 0.05 0.05 0.07 0.06 0.08 0.09 0.08 0.07 0.08 0.09 0.08 0.07 0.05 0.04
0.00 0.00 0.00 0.00 0.00 0.00 0.00 0.01 0.01 0.01 0.00 0.00 0.00 0.00 0.00 0.00 0.00 0.00 0.00 0.00 0.00 0.00 0.01 0.01 0.01 0.01 0.02 0.02 0.02 0.02 0.02 0.03 0.03 0.03 0.05 0.04 0.05 0.05 0.04 0.05 0.06 0.07 0.07 0.06 0.06 0.05 0.06 0.05 0.05
0.00 0.01 0.01 0.00 0.00 0.00 0.01 0.02 0.02 0.02 0.01 0.00 0.00 0.00 0.00 0.00 0.00 0.00 0.01 0.02 0.02 0.02 0.03 0.04 0.03 0.01 0.01 0.01 0.02 0.02 0.01 0.02 0.02 0.02 0.05 0.07 0.06 0.05 0.05 0.04 0.04 0.05 0.08 0.07 0.05 0.05 0.06 0.07 0.07
0.00 0.01 0.01 0.00 0.00 0.00 0.01 0.02 0.02 0.01 0.00 0.00 0.00 0.00 0.00 0.00 0.00 0.00 0.00 0.02 0.02 0.03 0.04 0.04 0.03 0.01 0.00 0.01 0.02 0.02 0.03 0.02 0.03 0.03 0.04 0.06 0.05 0.04 0.06 0.04 0.05 0.05 0.06 0.07 0.08 0.08 0.05 0.07 0.07
0.01 0.00 0.01 0.01 0.00 0.00 0.00 0.01 0.01 0.00 0.00 0.00 0.00 0.00 0.00 0.00 0.00 0.00 0.00 0.01 0.01 0.02 0.03 0.04 0.03 0.01 0.01 0.01 0.02 0.02 0.02 0.03 0.03 0.04 0.03 0.05 0.06 0.05 0.06 0.06 0.06 0.06 0.07 0.06 0.06 0.08 0.07 0.06 0.06
0.02 0.01 0.01 0.00 0.00 0.00 0.00 0.00 0.00 0.00 0.00 0.00 0.00 0.00 0.00 0.01 0.00 0.00 0.00 0.00 0.01 0.01 0.02 0.02 0.01 0.01 0.01 0.01 0.02 0.03 0.02 0.02 0.03 0.03 0.04 0.04 0.05 0.05 0.05 0.04 0.04 0.05 0.07 0.06 0.06 0.09 0.09 0.07 0.07
0.00 0.01 0.00 0.00 0.00 0.00 0.00 0.00 0.00 0.00 0.00 0.00 0.00 0.01 0.00 0.01 0.00 0.00 0.00 0.00 0.01 0.01 0.01 0.02 0.01 0.01 0.02 0.03 0.04 0.04 0.05 0.03 0.03 0.03 0.03 0.03 0.03 0.04 0.05 0.04 0.06 0.06 0.07 0.06 0.06 0.07 0.08 0.07 0.07
0.00 0.01 0.00 0.00 0.00 0.00 0.00 0.00 0.00 0.00 0.00 0.00 0.01 0.01 0.01 0.00 0.00 0.00 0.00 0.00 0.01 0.01 0.01 0.01 0.02 0.02 0.02 0.03 0.04 0.05 0.04 0.02 0.03 0.04 0.04 0.03 0.04 0.04 0.04 0.06 0.05 0.05 0.06 0.06 0.06 0.07 0.07 0.06 0.09
0.01 0.00 0.00 0.00 0.00 0.00 0.00 0.01 0.02 0.01 0.00 0.00 0.01 0.01 0.01 0.00 0.00 0.00 0.00 0.00 0.01 0.01 0.01 0.01 0.02 0.02 0.04 0.04 0.03 0.04 0.05 0.05 0.05 0.07 0.07 0.04 0.03 0.02 0.03 0.04 0.05 0.05 0.06 0.07 0.06 0.06 0.07 0.09 0.09
0.03 0.01 0.00 0.00 0.00 0.00 0.00 0.02 0.07 0.05 0.01 0.00 0.00 0.01 0.01 0.00 0.00 0.00 0.00 0.01 0.00 0.00 0.00 0.01 0.01 0.02 0.04 0.04 0.03 0.04 0.05 0.06 0.06 0.07 0.07 0.04 0.03 0.03 0.03 0.03 0.05 0.07 0.07 0.08 0.06 0.06 0.05 0.07 0.07
0.02 0.01 0.00 0.00 0.00 0.01 0.01 0.01 0.02 0.04 0.04 0.02 0.01 0.02 0.02 0.01 0.00 0.00 0.01 0.01 0.00 0.00 0.00 0.01 0.02 0.02 0.03 0.02 0.03 0.04 0.05 0.04 0.05 0.06 0.06 0.05 0.05 0.04 0.03 0.03 0.04 0.05 0.07 0.07 0.06 0.06 0.04 0.04 0.05
0.01 0.00 0.00 0.00 0.01 0.03 0.01 0.01 0.01 0.02 0.05 0.01 0.01 0.01 0.01 0.00 0.00 0.01 0.01 0.02 0.02 0.01 0.00 0.01 0.02 0.02 0.02 0.02 0.03 0.04 0.04 0.05 0.05 0.05 0.06 0.05 0.05 0.05 0.04 0.05 0.05 0.05 0.06 0.07 0.05 0.05 0.05 0.05 0.04
0.00 0.00 0.00 0.01 0.00 0.01 0.01 0.01 0.02 0.02 0.00 0.00 0.00 0.00 0.00 0.01 0.00 0.01 0.01 0.01 0.03 0.03 0.01 0.02 0.02 0.02 0.02 0.02 0.02 0.03 0.04 0.05 0.04 0.04 0.04 0.04 0.03 0.03 0.04 0.04 0.04 0.04 0.04 0.05 0.06 0.06 0.07 0.05 0.04
0.00 0.00 0.00 0.01 0.01 0.02 0.01 0.01 0.01 0.00 0.00 0.01 0.01 0.00 0.00 0.00 0.01 0.01 0.01 0.02 0.02 0.01 0.02 0.01 0.01 0.01 0.01 0.01 0.01 0.02 0.02 0.03 0.03 0.03 0.03 0.03 0.02 0.02 0.01 0.02 0.03 0.04 0.04 0.04 0.06 0.06 0.07 0.06 0.05
0.00 0.00 0.00 0.00 0.01 0.03 0.02 0.01 0.00 0.01 0.00 0.01 0.01 0.00 0.00 0.01 0.02 0.01 0.02 0.02 0.02 0.01 0.01 0.01 0.01 0.01 0.01 0.01 0.01 0.01 0.01 0.01 0.02 0.02 0.02 0.02 0.02 0.01 0.01 0.02 0.04 0.05 0.04 0.05 0.06 0.06 0.07 0.07 0.07
0.00 0.00 0.00 0.00 0.00 0.01 0.02 0.01 0.01 0.01 0.01 0.02 0.02 0.01 0.01 0.01 0.02 0.03 0.04 0.02 0.01 0.01 0.01 0.01 0.02 0.02 0.02 0.01 0.01 0.01 0.00 0.01 0.01 0.01 0.01 0.01 0.02 0.02 0.02 0.02 0.04 0.05 0.04 0.06 0.06 0.04 0.05 0.05 0.05
0.00 0.00 0.00 0.00 0.00 0.00 0.01 0.01 0.01 0.02 0.03 0.03 0.02 0.01 0.01 0.01 0.01 0.02 0.02 0.02 0.01 0.01 0.01 0.02 0.02 0.02 0.02 0.02 0.01 0.01 0.00 0.00 0.01 0.02 0.01 0.01 0.03 0.03 0.02 0.02 0.03 0.04 0.04 0.04 0.05 0.04 0.04 0.05 0.04
0.00 0.00 0.00 0.00 0.01 0.01 0.01 0.01 0.01 0.01 0.02 0.03 0.03 0.03 0.01 0.01 0.01 0.01 0.02 0.02 0.01 0.01 0.01 0.01 0.01 0.02 0.02 0.02 0.01 0.01 0.01 0.01 0.02 0.03 0.03 0.03 0.04 0.05 0.04 0.03 0.04 0.04 0.03 0.03 0.04 0.04 0.05 0.05 0.04
MSLP
1006.42 1007.18 1007.99 1008.68 1009.17 1009.38 1009.33 1009.08 1008.77 1008.51 1008.44 1008.60 1008.99 1009.53 1010.13 1010.65 1010.99 1011.08 1010.93 1010.61 1010.22 1009.88 1009.67 1009.65 1009.85 1010.20 1010.63 1011.06 1011.42 1011.68 1011.85 1011.95 1012.03 1012.17 1012.37 1012.65 1012.97 1013.30 1013.57 1013.75 1013.83 1013.81 1013.72 1013.61 1013.51 1013.46 1013.45 1013.48 1013.51
1006.41 1007.25 1008.08 1008.75 1009.16 1009.26 1009.08 1008.71 1008.29 1007.96 1007.85 1008.01 1008.42 1009.02 1009.68 1010.27 1010.70 1010.91 1010.89 1010.72 1010.49 1010.30 1010.23 1010.32 1010.57 1010.93 1011.33 1011.68 1011.95 1012.11 1012.18 1012.21 1012.25 1012.35 1012.53 1012.79 1013.08 1013.37 1013.59 1013.72 1013.75 1013.69 1013.59 1013.47 1013.39 1013.35 1013.36 1013.39 1013.40
1006.31 1007.21 1008.05 1008.70 1009.04 1009.07 1008.82 1008.39 1007.94 1007.60 1007.51 1007.69 1008.13 1008.75 1009.44 1010.07 1010.53 1010.78 1010.85 1010.78 1010.66 1010.60 1010.65 1010.84 1011.16 1011.54 1011.92 1012.22 1012.42 1012.51 1012.52 1012.49 1012.49 1012.55 1012.69 1012.90 1013.14 1013.36 1013.52 1013.59 1013.56 1013.48 1013.37 1013.27 1013.22 1013.21 1013.24 1013.27 1013.28
1006.08 1007.02 1007.87 1008.49 1008.82 1008.83 1008.56 1008.16 1007.74 1007.46 1007.43 1007.66 1008.13 1008.77 1009.44 1010.04 1010.47 1010.72 1010.79 1010.76 1010.72 1010.75 1010.89 1011.17 1011.55 1011.96 1012.34 1012.63 1012.80 1012.85 1012.83 1012.77 1012.74 1012.77 1012.87 1013.03 1013.19 1013.33 1013.41 1013.41 1013.34 1013.23 1013.13 1013.05 1013.03 1013.06 1013.11 1013.15 1013.15
1005.74 1006.68 1007.53 1008.15 1008.48 1008.51 1008.31 1007.99 1007.67 1007.50 1007.56 1007.86 1008.36 1008.98 1009.60 1010.13 1010.49 1010.67 1010.70 1010.67 1010.65 1010.73 1010.94 1011.28 1011.71 1012.16 1012.56 1012.86 1013.03 1013.09 1013.06 1013.00 1012.97 1012.99 1013.06 1013.15 1013.25 1013.31 1013.30 1013.23 1013.11 1012.99 1012.88 1012.83 1012.84 1012.90 1012.97 1013.01 1012.97
1005.30 1006.23 1007.06 1007.68 1008.04 1008.14 1008.03 1007.83 1007.66 1007.62 1007.79 1008.16 1008.68 1009.27 1009.81 1010.24 1010.49 1010.57 1010.54 1010.47 1010.46 1010.56 1010.81 1011.20 1011.67 1012.15 1012.58 1012.90 1013.09 1013.16 1013.16 1013.14 1013.12 1013.15 1013.20 1013.26 1013.30 1013.28 1013.20 1013.07 1012.90 1012.75 1012.65 1012.62 1012.64 1012.72 1012.78 1012.80 1012.74
1004.82 1005.71 1006.51 1007.14 1007.53 1007.69 1007.70 1007.64 1007.62 1007.72 1007.99 1008.42 1008.94 1009.48 1009.94 1010.26 1010.39 1010.38 1010.28 1010.18 1010.16 1010.28 1010.56 1010.98 1011.47 1011.98 1012.41 1012.74 1012.95 1013.06 1013.09 1013.11 1013.13 1013.18 1013.23 1013.28 1013.27 1013.21 1013.07 1012.88 1012.68 1012.51 1012.40 1012.37 1012.41 1012.48 1012.53 1012.52 1012.41
1004.38 1005.20 1005.96 1006.57 1006.98 1007.22 1007.33 1007.39 1007.50 1007.72 1008.07 1008.53 1009.04 1009.53 1009.90 1010.12 1010.16 1010.08 1009.94 1009.83 1009.82 1009.96 1010.27 1010.70 1011.20 1011.70 1012.13 1012.45 1012.66 1012.77 1012.84 1012.89 1012.95 1013.03 1013.11 1013.15 1013.14 1013.04 1012.87 1012.65 1012.42 1012.23 1012.12 1012.09 1012.12 1012.17 1012.20 1012.15 1011.99
1004.03 1004.78 1005.48 1006.06 1006.48 1006.76 1006.94 1007.10 1007.31 1007.61 1008.01 1008.48 1008.96 1009.38 1009.67 1009.81 1009.80 1009.69 1009.54 1009.45 1009.47 1009.66 1009.99 1010.43 1010.92 1011.39 1011.78 1012.06 1012.24 1012.35 1012.41 1012.48 1012.58 1012.69 1012.79 1012.86 1012.85 1012.75 1012.57 1012.34 1012.10 1011.91 1011.78 1011.74 1011.76 1011.80 1011.80 1011.72 1011.53
1003.83 1004.51 1005.15 1005.68 1006.08 1006.38 1006.61 1006.83 1007.10 1007.43 1007.85 1008.30 1008.73 1009.08 1009.31 1009.40 1009.36 1009.25 1009.13 1009.09 1009.17 1009.40 1009.76 1010.21 1010.68 1011.10 1011.43 1011.64 1011.76 1011.82 1011.87 1011.94 1012.04 1012.18 1012.32 1012.41 1012.43 1012.35 1012.19 1011.96 1011.73 1011.54 1011.41 1011.37 1011.37 1011.39 1011.38 1011.27 1011.06
1003.83 1004.44 1005.00 1005.48 1005.86 1006.15 1006.40 1006.65 1006.94 1007.28 1007.67 1008.08 1008.45 1008.74 1008.92 1008.96 1008.91 1008.82 1008.75 1008.77 1008.92 1009.21 1009.60 1010.05 1010.48 1010.85 1011.10 1011.23 1011.28 1011.28 1011.28 1011.32 1011.43 1011.58 1011.74 1011.87 1011.93 1011.89 1011.75 1011.56 1011.34 1011.16 1011.04 1010.99 1010.99 1011.00 1010.97 1010.86 1010.66
1004.01 1004.56 1005.06 1005.48 1005.83 1006.11 1006.36 1006.62 1006.90 1007.23 1007.59 1007.93 1008.24 1008.46 1008.57 1008.59 1008.53 1008.46 1008.44 1008.51 1008.72 1009.05 1009.47 1009.91 1010.32 1010.63 1010.81 1010.87 1010.84 1010.77 1010.72 1010.73 1010.83 1010.98 1011.17 1011.33 1011.43 1011.43 1011.34 1011.18 1011.00 1010.83 1010.72 1010.67 1010.66 1010.67 1010.64 1010.54 1010.35
1004.35 1004.84 1005.29 1005.67 1005.98 1006.25 1006.50 1006.75 1007.03 1007.33 1007.64 1007.93 1008.16 1008.31 1008.36 1008.33 1008.26 1008.19 1008.19 1008.30 1008.53 1008.89 1009.32 1009.76 1010.14 1010.42 1010.55 1010.56 1010.48 1010.36 1010.27 1010.26 1010.34 1010.49 1010.69 1010.88 1011.02 1011.07 1011.03 1010.91 1010.75 1010.61 1010.50 1010.44 1010.43 1010.44 1010.42 1010.34 1010.19
1004.79 1005.23 1005.62 1005.96 1006.26 1006.52 1006.77 1007.03 1007.30 1007.57 1007.84 1008.07 1008.23 1008.31 1008.30 1008.22 1008.10 1008.01 1007.99 1008.10 1008.33 1008.69 1009.11 1009.55 1009.92 1010.19 1010.31 1010.31 1010.22 1010.09 1009.99 1009.96 1010.03 1010.19 1010.39 1010.61 1010.78 1010.87 1010.86 1010.78 1010.65 1010.51 1010.41 1010.35 1010.33 1010.33 1010.31 1010.26 1010.16
1005.23 1005.61 1005.96 1006.28 1006.56 1006.83 1007.09 1007.35 1007.62 1007.87 1008.11 1008.29 1008.39 1008.41 1008.34 1008.19 1008.03 1007.89 1007.84 1007.90 1008.10 1008.43 1008.83 1009.26 1009.64 1009.92 1010.08 1010.11 1010.05 1009.95 1009.87 1009.86 1009.93 1010.09 1010.30 1010.53 1010.72 1010.83 1010.86 1010.81 1010.70 1010.57 1010.45 1010.38 1010.34 1010.34 1010.33 1010.31 1010.25
1005.60 1005.93 1006.24 1006.53 1006.81 1007.09 1007.36 1007.63 1007.89 1008.13 1008.34 1008.48 1008.54 1008.51 1008.39 1008.20 1007.99 1007.80 1007.69 1007.70 1007.85 1008.12 1008.50 1008.91 1009.31 1009.63 1009.85 1009.95 1009.97 1009.94 1009.91 1009.92 1010.01 1010.18 1010.39 1010.63 1010.83 1010.96 1011.01 1010.98 1010.88 1010.75 1010.62 1010.53 1010.47 1010.45 1010.45 1010.45 1010.43
1005.84 1006.11 1006.38 1006.67 1006.95 1007.24 1007.52 1007.78 1008.03 1008.24 1008.41 1008.52 1008.55 1008.49 1008.36 1008.15 1007.92 1007.70 1007.55 1007.50 1007.59 1007.81 1008.15 1008.55 1008.96 1009.34 1009.63 1009.83 1009.94 1010.00 1010.04 1010.11 1010.22 1010.40 1010.62 1010.85 1011.06 1011.21 1011.27 1011.25 1011.17 1011.04 1010.90 1010.79 1010.71 1010.67 1010.66 1010.67 1010.69
1005.92 1006.14 1006.39 1006.67 1006.97 1007.25 1007.52 1007.76 1007.97 1008.13 1008.25 1008.32 1008.33 1008.27 1008.15 1007.97 1007.76 1007.55 1007.39 1007.31 1007.36 1007.54 1007.83 1008.22 1008.64 1009.06 1009.43 1009.72 1009.94 1010.10 1010.22 1010.34 1010.49 1010.69 1010.91 1011.14 1011.36 1011.52 1011.61 1011.61 1011.54 1011.42 1011.28 1011.15 1011.05 1010.99 1010.98 1011.00 1011.04
1005.85 1006.05 1006.30 1006.60 1006.90 1007.18 1007.42 1007.60 1007.72 1007.79 1007.84 1007.85 1007.83 1007.79 1007.71 1007.60 1007.46 1007.31 1007.19 1007.13 1007.17 1007.32 1007.59 1007.95 1008.37 1008.82 1009.25 1009.63 1009.94 1010.18 1010.39 1010.57 1010.76 1010.97 1011.21 1011.45 1011.68 1011.86 1011.98 1012.01 1011.97 1011.87 1011.74 1011.61 1011.50 1011.43 1011.40 1011.43 1011.48
1005.68 1005.89 1006.18 1006.52 1006.84 1007.10 1007.28 1007.35 1007.35 1007.28 1007.20 1007.12 1007.06 1007.03 1007.01 1007.00 1006.98 1006.94 1006.92 1006.93 1006.99 1007.14 1007.39 1007.73 1008.15 1008.60 1009.07 1009.51 1009.89 1010.22 1010.50 1010.74 1010.98 1011.22 1011.47 1011.74 1011.99 1012.21 1012.37 1012.45 1012.46 1012.40 1012.29 1012.17 1012.06 1011.98 1011.95 1011.98 1012.04
1005.47 1005.74 1006.12 1006.52 1006.87 1007.11 1007.20 1007.14 1006.95 1006.69 1006.42 1006.20 1006.07 1006.03 1006.07 1006.16 1006.28 1006.40 1006.51 1006.62 1006.75 1006.93 1007.17 1007.50 1007.90 1008.36 1008.85 1009.33 1009.77 1010.17 1010.52 1010.83 1011.11 1011.40 1011.70 1011.99 1012.29 1012.55 1012.77 1012.92 1012.99 1012.98 1012.92 1012.83 1012.73 1012.66 1012.63 1012.64 1012.71
1005.27 1005.67 1006.17 1006.67 1007.07 1007.28 1007.26 1007.03 1006.62 1006.12 1005.62 1005.21 1004.95 1004.85 1004.92 1005.10 1005.36 1005.63 1005.89 1006.12 1006.34 1006.57 1006.84 1007.16 1007.56 1008.03 1008.53 1009.05 1009.55 1010.02 1010.44 1010.82 1011.18 1011.52 1011.87 1012.22 1012.57 1012.90 1013.18 1013.40 1013.54 1013.60 1013.60 1013.55 1013.48 1013.41 1013.38 1013.40 1013.45
1005.14 1005.70 1006.36 1006.97 1007.42 1007.61 1007.49 1007.07 1006.42 1005.64 1004.88 1004.23 1003.80 1003.60 1003.64 1003.87 1004.22 1004.62 1005.01 1005.37 1005.69 1005.98 1006.29 1006.64 1007.05 1007.53 1008.07 1008.64 1009.21 1009.76 1010.27 1010.74 1011.18 1011.60 1012.01 1012.43 1012.84 1013.23 1013.58 1013.87 1014.08 1014.21 1014.26 1014.26 1014.22 1014.18 1014.16 1014.17 1014.22
1005.09 1005.83 1006.64 1007.38 1007.88 1008.05 1007.83 1007.23 1006.34 1005.30 1004.26 1003.36 1002.71 1002.36 1002.31 1002.52 1002.91 1003.38 1003.87 1004.32 1004.73 1005.10 1005.46 1005.86 1006.31 1006.85 1007.45 1008.09 1008.76 1009.41 1010.03 1010.61 1011.14 1011.64 1012.13 1012.61 1013.07 1013.52 1013.93 1014.28 1014.55 1014.74 1014.85 1014.89 1014.89 1014.87 1014.87 1014.88 1014.93
1005.10 1005.99 1006.94 1007.77 1008.33 1008.48 1008.17 1007.43 1006.35 1005.07 1003.77 1002.63 1001.76 1001.23 1001.05 1001.17 1001.52 1002.00 1002.52 1003.03 1003.49 1003.93 1004.37 1004.83 1005.37 1005.99 1006.69 1007.45 1008.23 1009.01 1009.75 1010.44 1011.07 1011.66 1012.22 1012.75 1013.26 1013.75 1014.19 1014.58 1014.90 1015.14 1015.29 1015.37 1015.41 1015.43 1015.44 1015.47 1015.53
1005.13 1006.11 1007.14 1008.03 1008.61 1008.75 1008.39 1007.55 1006.34 1004.90 1003.42 1002.08 1001.01 1000.30 999.95 999.94 1000.19 1000.60 1001.09 1001.60 1002.10 1002.59 1003.10 1003.66 1004.31 1005.04 1005.87 1006.77 1007.69 1008.60 1009.47 1010.27 1011.00 1011.66 1012.27 1012.83 1013.37 1013.88 1014.34 1014.75 1015.09 1015.36 1015.55 1015.67 1015.74 1015.79 1015.84 1015.90 1015.97
1005.15 1006.14 1007.17 1008.04 1008.61 1008.73 1008.35 1007.49 1006.23 1004.73 1003.17 1001.72 1000.51 999.65 999.14 998.96 999.07 999.36 999.76 1000.23 1000.72 1001.25 1001.83 1002.49 1003.25 1004.13 1005.10 1006.14 1007.20 1008.24 1009.23 1010.12 1010.92 1011.64 1012.28 1012.86 1013.40 1013.91 1014.37 1014.78 1015.13 1015.41 1015.62 1015.77 1015.88 1015.97 1016.06 1016.15 1016.27
1005.15 1006.03 1006.95 1007.75 1008.25 1008.35 1007.98 1007.16 1005.96 1004.52 1002.99 1001.54 1000.30 999.34 998.71 998.38 998.32 998.46 998.74 999.11 999.57 1000.10 1000.74 1001.49 1002.37 1003.38 1004.49 1005.67 1006.85 1008.00 1009.07 1010.03 1010.87 1011.60 1012.25 1012.83 1013.36 1013.84 1014.30 1014.70 1015.05 1015.34 1015.57 1015.75 1015.89 1016.02 1016.14 1016.28 1016.44
1005.11 1005.80 1006.52 1007.15 1007.54 1007.60 1007.28 1006.56 1005.52 1004.25 1002.88 1001.56 1000.38 999.43 998.73 998.28 998.07 998.05 998.18 998.45 998.83 999.35 1000.01 1000.83 1001.81 1002.93 1004.15 1005.43 1006.70 1007.91 1009.02 1010.00 1010.85 1011.57 1012.20 1012.76 1013.27 1013.74 1014.17 1014.57 1014.92 1015.23 1015.47 1015.68 1015.85 1016.01 1016.17 1016.35 1016.56
1005.11 1005.51 1005.95 1006.35 1006.59 1006.60 1006.33 1005.76 1004.95 1003.94 1002.85 1001.75 1000.75 999.88 999.19 998.68 998.35 998.18 998.16 998.30 998.60 999.07 999.73 1000.59 1001.63 1002.82 1004.11 1005.44 1006.74 1007.97 1009.07 1010.04 1010.86 1011.55 1012.15 1012.69 1013.18 1013.64 1014.07 1014.48 1014.84 1015.16 1015.43 1015.66 1015.85 1016.04 1016.23 1016.44 1016.67
Thickness
5831 5832 5830 5820 5801 5795 5798 5814 5822 5819 5821 5829 5830 5824 5810 5802 5791 5777 5801 5810 5806 5801 5796 5792 5790 5789 5787 5786 5786 5785 5784 5783 5782 5781 5780 5778 5777 5775 5774 5773 5772 5772 5771 5770 5769 5768 5767 5766 5765
5839 5838 5828 5814 5798 5790 5798 5817 5817 5820 5828 5834 5831 5824 5812 5804 5808 5803 5805 5808 5807 5802 5797 5792 5789 5788 5787 5786 5785 5784 5783 5782 5781 5780 5779 5777 5776 5775 5774 5773 5772 5771 5770 5769 5768 5768 5767 5766 5765
5842 5842 5823 5812 5809 5803 5804 5820 5823 5831 5837 5833 5824 5821 5811 5803 5807 5806 5809 5811 5808 5803 5797 5791 5788 5787 5787 5786 5784 5783 5783 5782 5781 5779 5778 5777 5776 5775 5774 5773 5772 5771 5770 5769 5768 5767 5766 5766 5765
5843 5836 5827 5819 5811 5822 5825 5828 5833 5831 5834 5835 5826 5811 5810 5816 5813 5812 5814 5812 5808 5803 5797 5790 5788 5787 5786 5785 5783 5783 5782 5781 5780 5778 5777 5776 5775 5774 5773 5772 5771 5771 5770 5769 5768 5767 5766 5765 5765
5845 5830 5818 5815 5819 5831 5838 5841 5840 5831 5828 5829 5822 5804 5801 5815 5820 5818 5816 5814 5808 5803 5798 5791 5788 5786 5785 5783 5782 5782 5781 5780 5779 5778 5777 5776 5775 5774 5773 5772 5772 5771 5770 5769 5768 5767 5766 5765 5765
5836 5834 5816 5811 5822 5834 5842 5847 5843 5833 5830 5829 5820 5805 5800 5815 5816 5817 5818 5815 5811 5805 5799 5792 5788 5787 5785 5783 5782 5782 5781 5780 5779 5778 5777 5776 5774 5774 5773 5772 5772 5771 5770 5769 5769 5767 5766 5765 5765
5833 5831 5823 5825 5826 5831 5841 5851 5843 5834 5829 5830 5829 5808 5803 5812 5818 5820 5819 5816 5813 5808 5801 5796 5791 5787 5785 5783 5782 5781 5781 5780 5779 5778 5777 5776 5775 5774 5773 5773 5772 5771 5771 5770 5769 5768 5767 5766 5766
5862 5842 5830 5833 5829 5829 5847 5851 5849 5841 5833 5844 5840 5814 5802 5813 5821 5821 5818 5815 5812 5809 5805 5800 5795 5791 5788 5785 5783 5782 5781 5780 5779 5778 5777 5776 5775 5775 5774 5774 5772 5772 5771 5770 5769 5768 5767 5767 5766
5871 5838 5826 5834 5834 5837 5852 5847 5850 5854 5845 5843 5841 5831 5823 5824 5823 5818 5813 5810 5808 5807 5806 5804 5800 5796 5793 5790 5786 5783 5782 5781 5780 5779 5778 5777 5777 5777 5776 5775 5773 5772 5771 5771 5770 5769 5769 5768 5767
5864 5832 5837 5853 5854 5850 5853 5850 5850 5845 5835 5831 5829 5829 5829 5825 5820 5814 5809 5806 5804 5804 5806 5805 5803 5799 5796 5794 5788 5787 5785 5783 5782 5781 5780 5779 5779 5779 5778 5776 5774 5773 5772 5772 5771 5770 5769 5769 5769
5865 5846 5855 5863 5867 5862 5855 5853 5859 5844 5828 5829 5823 5822 5825 5823 5820 5816 5813 5810 5808 5808 5808 5806 5804 5802 5798 5795 5791 5789 5788 5785 5784 5782 5781 5780 5780 5780 5778 5776 5774 5774 5773 5773 5772 5771 5771 5772 5772
5866 5865 5868 5868 5871 5866 5859 5855 5851 5847 5839 5845 5839 5833 5828 5824 5821 5819 5816 5814 5813 5810 5808 5807 5805 5801 5798 5796 5793 5791 5790 5788 5787 5784 5783 5782 5781 5780 5779 5777 5776 5776 5775 5775 5774 5774 5774 5774 5774
5865 5866 5873 5876 5873 5868 5863 5854 5849 5846 5851 5850 5843 5836 5830 5828 5825 5825 5822 5819 5816 5811 5810 5808 5805 5800 5798 5796 5795 5793 5791 5790 5789 5786 5784 5783 5782 5781 5780 5778 5777 5777 5776 5776 5776 5776 5775 5775 5775
5868 5869 5870 5874 5872 5869 5858 5853 5849 5844 5853 5846 5840 5835 5834 5831 5828 5824 5821 5818 5816 5813 5811 5809 5806 5802 5799 5797 5796 5795 5794 5792 5791 5788 5785 5784 5783 5782 5780 5780 5779 5778 5778 5777 5777 5777 5776 5776 5776
5875 5862 5861 5869 5870 5868 5860 5838 5841 5850 5852 5843 5839 5837 5835 5834 5832 5827 5824 5821 5818 5815 5813 5810 5808 5805 5801 5800 5799 5798 5796 5795 5793 5789 5787 5785 5784 5783 5781 5780 5780 5780 5779 5779 5778 5778 5777 5776 5776
5862 5851 5838 5859 5870 5870 5853 5824 5845 5855 5850 5841 5840 5839 5836 5835 5834 5832 5830 5826 5822 5818 5814 5812 5813 5807 5804 5802 5801 5800 5798 5796 5794 5791 5788 5786 5785 5784 5782 5781 5780 5780 5780 5780 5779 5777 5776 5775 5775
5841 5830 5832 5850 5872 5871 5856 5834 5846 5856 5851 5842 5842 5840 5837 5835 5836 5835 5834 5830 5825 5820 5816 5812 5812 5808 5805 5803 5802 5800 5798 5796 5795 5792 5789 5787 5786 5784 5783 5782 5781 5781 5781 5780 5780 5777 5776 5774 5773
5830 5837 5839 5845 5865 5866 5855 5844 5851 5858 5855 5846 5844 5842 5839 5836 5836 5838 5837 5833 5828 5823 5818 5814 5811 5809 5806 5804 5802 5800 5798 5797 5795 5792 5789 5787 5786 5785 5783 5783 5781 5781 5780 5779 5778 5775 5776 5774 5773
5849 5847 5842 5854 5872 5864 5853 5848 5853 5859 5857 5850 5845 5844 5841 5840 5843 5842 5839 5836 5829 5823 5818 5815 5811 5809 5806 5802 5799 5796 5794 5795 5794 5792 5789 5787 5785 5784 5783 5782 5781 5780 5778 5777 5776 5774 5773 5773 5773
5850 5841 5842 5855 5872 5864 5853 5849 5858 5861 5860 5858 5852 5846 5845 5843 5842 5839 5838 5835 5830 5824 5819 5815 5812 5809 5806 5804 5802 5799 5797 5795 5794 5791 5789 5787 5786 5784 5784 5781 5780 5779 5777 5776 5774 5773 5770 5771 5772
5844 5843 5844 5847 5862 5865 5851 5839 5846 5857 5864 5864 5861 5857 5852 5848 5842 5838 5837 5835 5832 5825 5821 5819 5814 5811 5808 5806 5803 5801 5797 5794 5791 5787 5786 5786 5785 5784 5782 5781 5779 5778 5777 5774 5773 5772 5769 5766 5768
5835 5857 5857 5852 5844 5835 5842 5812 5834 5850 5851 5855 5858 5857 5854 5853 5849 5843 5839 5836 5833 5829 5826 5822 5817 5813 5809 5807 5803 5797 5791 5787 5787 5787 5785 5785 5784 5783 5781 5779 5778 5776 5775 5773 5772 5771 5770 5767 5764
5846 5863 5858 5853 5842 5833 5838 5824 5829 5849 5837 5847 5857 5859 5858 5857 5853 5847 5843 5839 5838 5834 5829 5824 5818 5813 5810 5807 5804 5798 5794 5792 5790 5788 5784 5783 5783 5781 5780 5778 5776 5774 5772 5771 5770 5769 5768 5766 5763
5859 5855 5850 5848 5837 5811 5827 5822 5819 5837 5844 5851 5859 5862 5861 5860 5855 5851 5848 5843 5838 5836 5831 5825 5817 5812 5810 5806 5803 5799 5794 5791 5788 5784 5782 5781 5781 5780 5778 5776 5774 5772 5771 5769 5768 5766 5765 5763 5762
5851 5831 5811 5804 5803 5804 5829 5824 5825 5848 5862 5864 5862 5861 5862 5860 5855 5849 5845 5841 5836 5833 5830 5825 5817 5811 5809 5805 5802 5799 5795 5792 5787 5784 5781 5779 5778 5777 5776 5775 5772 5770 5768 5767 5765 5763 5761 5760 5758
5844 5836 5807 5790 5794 5803 5821 5817 5835 5861 5868 5871 5868 5865 5862 5859 5856 5851 5847 5842 5838 5834 5830 5825 5817 5811 5808 5805 5801 5799 5795 5792 5789 5785 5782 5780 5778 5777 5776 5774 5771 5768 5766 5765 5763 5760 5758 5757 5755
5835 5836 5844 5823 5815 5805 5811 5826 5844 5857 5859 5862 5863 5860 5856 5856 5855 5851 5847 5843 5838 5834 5829 5825 5817 5811 5807 5804 5801 5797 5794 5791 5788 5786 5783 5780 5778 5777 5774 5772 5769 5766 5764 5761 5760 5757 5755 5754 5752
5850 5844 5833 5815 5793 5785 5801 5812 5819 5834 5843 5849 5850 5850 5852 5853 5852 5850 5847 5843 5839 5835 5831 5826 5818 5811 5807 5804 5800 5797 5793 5790 5787 5785 5781 5779 5776 5774 5771 5769 5766 5763 5761 5759 5756 5754 5752 5750 5748
5832 5831 5829 5824 5818 5796 5788 5804 5836 5832 5838 5841 5842 5847 5850 5849 5847 5845 5844 5842 5838 5834 5830 5823 5817 5811 5806 5802 5799 5796 5792 5789 5785 5782 5779 5777 5774 5770 5767 5765 5763 5760 5757 5755 5752 5750 5749 5746 5744
5837 5834 5828 5807 5803 5809 5801 5807 5847 5843 5844 5840 5841 5844 5844 5846 5846 5843 5841 5837 5834 5830 5826 5820 5816 5811 5806 5801 5797 5793 5789 5785 5782 5779 5777 5774 5771 5768 5765 5762 5759 5756 5754 5751 5749 5746 5744 5742 5740